Year,Month,Day,Hour,Minute,Value (Times are PST for temperature in C)
2018,08,14,10,23,18.00
2018,08,14,10,24,18.10
2018,08,14,10,25,18.20
2018,08,14,10,26,18.30
2018,08,14,10,27,18.40
2018,08,14,10,28,18.50
2018,08,14,10,29,18.60
2018,08,14,10,30,18.70
2018,08,14,10,31,18.80
2018,08,14,10,32,18.80
2018,08,14,10,33,18.90
2018,08,14,10,34,19.00
2018,08,14,10,35,19.10
2018,08,14,10,36,19.10
2018,08,14,10,37,19.20
2018,08,14,10,38,19.20
2018,08,14,10,39,19.30
2018,08,14,10,40,19.30
2018,08,14,10,41,19.30
2018,08,14,10,42,19.40
2018,08,14,10,43,19.40
2018,08,14,10,44,19.50
2018,08,14,10,45,19.50
2018,08,14,10,46,19.50
2018,08,14,10,47,19.60
2018,08,14,10,48,19.60
2018,08,14,10,49,19.60
2018,08,14,10,50,19.60
2018,08,14,10,51,19.60
2018,08,14,10,52,19.60
2018,08,14,10,53,19.70
2018,08,14,10,54,19.70
2018,08,14,10,55,19.80
2018,08,14,10,56,19.80
2018,08,14,10,57,19.90
2018,08,14,10,58,19.90
2018,08,14,10,59,20.00
2018,08,14,11,00,20.00
2018,08,14,11,01,20.10
2018,08,14,11,02,20.20
2018,08,14,11,03,20.30
2018,08,14,11,04,20.40
2018,08,14,11,05,20.40
2018,08,14,11,06,20.50
2018,08,14,11,07,20.60
2018,08,14,11,08,20.60
2018,08,14,11,09,20.70
2018,08,14,11,10,20.70
2018,08,14,11,11,20.80
2018,08,14,11,12,20.80
2018,08,14,11,13,20.90
2018,08,14,11,14,20.90
2018,08,14,11,15,20.90
2018,08,14,11,16,20.90
2018,08,14,11,17,20.90
2018,08,14,11,18,20.90
2018,08,14,11,19,20.90
2018,08,14,11,20,20.90
2018,08,14,11,21,20.90
2018,08,14,11,22,21.00
2018,08,14,11,23,21.00
2018,08,14,11,24,21.10
2018,08,14,11,25,21.10
2018,08,14,11,26,21.10
2018,08,14,11,27,21.10
2018,08,14,11,28,21.10
2018,08,14,11,29,21.10
2018,08,14,11,30,21.20
2018,08,14,11,31,21.30
2018,08,14,11,32,21.30
2018,08,14,11,33,21.40
2018,08,14,11,34,21.50
2018,08,14,11,35,21.60
2018,08,14,11,36,21.60
2018,08,14,11,37,21.70
2018,08,14,11,38,21.80
2018,08,14,11,39,21.80
2018,08,14,11,40,21.90
2018,08,14,11,41,21.90
2018,08,14,11,42,22.00
2018,08,14,11,43,22.00
2018,08,14,11,44,22.10
2018,08,14,11,45,22.20
2018,08,14,11,46,22.20
2018,08,14,11,47,22.30
2018,08,14,11,48,22.40
2018,08,14,11,49,22.40
2018,08,14,11,50,22.50
2018,08,14,11,51,22.60
2018,08,14,11,52,22.60
2018,08,14,11,53,22.60
2018,08,14,11,54,22.70
2018,08,14,11,55,22.70
2018,08,14,11,56,22.80
2018,08,14,11,57,22.90
2018,08,14,11,58,23.00
2018,08,14,11,59,23.00
2018,08,14,12,00,23.10
2018,08,14,12,01,23.20
2018,08,14,12,02,23.20
2018,08,14,12,03,23.20
2018,08,14,12,04,23.20
2018,08,14,12,05,23.30
2018,08,14,12,06,23.30
2018,08,14,12,07,23.40
2018,08,14,12,08,23.50
2018,08,14,12,09,23.50
2018,08,14,12,10,23.50
2018,08,14,12,11,23.50
2018,08,14,12,12,23.50
2018,08,14,12,13,23.50
2018,08,14,12,14,23.50
2018,08,14,12,15,23.50
2018,08,14,12,16,23.60
2018,08,14,12,17,23.60
2018,08,14,12,18,23.60
2018,08,14,12,19,23.60
2018,08,14,12,20,23.50
2018,08,14,12,21,23.50
2018,08,14,12,22,23.50
2018,08,14,12,23,23.40
2018,08,14,12,24,23.40
2018,08,14,12,25,23.40
2018,08,14,12,26,23.40
2018,08,14,12,27,23.40
2018,08,14,12,28,23.40
2018,08,14,12,29,23.40
2018,08,14,12,30,23.40
2018,08,14,12,31,23.50
2018,08,14,12,32,23.50
2018,08,14,12,33,23.50
2018,08,14,12,34,23.50
2018,08,14,12,35,23.60
2018,08,14,12,36,23.60
2018,08,14,12,37,23.70
2018,08,14,12,38,23.80
2018,08,14,12,39,23.80
2018,08,14,12,40,24.00
2018,08,14,12,41,24.10
2018,08,14,12,42,24.20
2018,08,14,12,43,24.20
2018,08,14,12,44,24.20
2018,08,14,12,45,24.20
2018,08,14,12,46,24.20
2018,08,14,12,47,24.20
2018,08,14,12,48,24.20
2018,08,14,12,49,24.10
2018,08,14,12,50,24.00
2018,08,14,12,51,24.00
2018,08,14,12,52,23.90
2018,08,14,12,53,23.90
2018,08,14,12,54,24.00
2018,08,14,12,55,24.10
2018,08,14,12,56,24.10
2018,08,14,12,57,24.20
2018,08,14,12,58,24.20
2018,08,14,12,59,24.30
2018,08,14,13,00,24.30
2018,08,14,13,01,24.40
2018,08,14,13,02,24.50
2018,08,14,13,03,24.50
2018,08,14,13,04,24.60
2018,08,14,13,05,24.70
2018,08,14,13,06,24.70
2018,08,14,13,07,24.80
2018,08,14,13,08,24.80
2018,08,14,13,09,24.80
2018,08,14,13,10,24.80
2018,08,14,13,11,24.80
2018,08,14,13,12,24.80
2018,08,14,13,13,24.80
2018,08,14,13,14,24.80
2018,08,14,13,15,24.80
2018,08,14,13,16,24.80
2018,08,14,13,17,24.80
2018,08,14,13,18,24.90
2018,08,14,13,19,24.90
2018,08,14,13,20,24.90
2018,08,14,13,21,25.00
2018,08,14,13,22,25.00
2018,08,14,13,23,25.00
2018,08,14,13,24,25.10
2018,08,14,13,25,25.10
2018,08,14,13,26,25.10
2018,08,14,13,27,25.10
2018,08,14,13,28,25.20
2018,08,14,13,29,25.20
2018,08,14,13,30,25.20
2018,08,14,13,31,25.20
2018,08,14,13,32,25.30
2018,08,14,13,33,25.30
2018,08,14,13,34,25.30
2018,08,14,13,35,25.30
2018,08,14,13,36,25.40
2018,08,14,13,37,25.40
2018,08,14,13,38,25.50
2018,08,14,13,39,25.50
2018,08,14,13,40,25.60
2018,08,14,13,41,25.70
2018,08,14,13,42,25.80
2018,08,14,13,43,25.80
2018,08,14,13,44,25.90
2018,08,14,13,45,25.90
2018,08,14,13,46,25.90
2018,08,14,13,47,26.00
2018,08,14,13,48,26.00
2018,08,14,13,49,25.90
2018,08,14,13,50,25.90
2018,08,14,13,51,25.90
2018,08,14,13,52,25.90
2018,08,14,13,53,25.80
2018,08,14,13,54,25.80
2018,08,14,13,55,25.70
2018,08,14,13,56,25.60
2018,08,14,13,57,25.40
2018,08,14,13,58,25.20
2018,08,14,13,59,25.10
2018,08,14,14,00,25.00
2018,08,14,14,01,24.90
2018,08,14,14,02,24.90
2018,08,14,14,03,24.80
2018,08,14,14,04,24.80
2018,08,14,14,05,24.90
2018,08,14,14,06,24.90
2018,08,14,14,07,24.90
2018,08,14,14,08,25.00
2018,08,14,14,09,25.00
2018,08,14,14,10,25.10
2018,08,14,14,11,25.10
2018,08,14,14,12,25.20
2018,08,14,14,13,25.20
2018,08,14,14,14,25.30
2018,08,14,14,15,25.30
2018,08,14,14,16,25.40
2018,08,14,14,17,25.50
2018,08,14,14,18,25.60
2018,08,14,14,19,25.60
2018,08,14,14,20,25.70
2018,08,14,14,21,25.80
2018,08,14,14,22,25.80
2018,08,14,14,23,25.80
2018,08,14,14,24,25.80
2018,08,14,14,25,25.80
2018,08,14,14,26,25.80
2018,08,14,14,27,25.90
2018,08,14,14,28,25.90
2018,08,14,14,29,25.90
2018,08,14,14,30,26.00
2018,08,14,14,31,26.00
2018,08,14,14,32,26.00
2018,08,14,14,33,25.90
2018,08,14,14,34,25.90
2018,08,14,14,35,25.90
2018,08,14,14,36,25.90
2018,08,14,14,37,25.80
2018,08,14,14,38,25.80
2018,08,14,14,39,25.90
2018,08,14,14,40,25.90
2018,08,14,14,41,25.90
2018,08,14,14,42,26.00
2018,08,14,14,43,26.00
2018,08,14,14,44,26.00
2018,08,14,14,45,26.00
2018,08,14,14,46,25.90
2018,08,14,14,47,25.90
2018,08,14,14,48,25.90
2018,08,14,14,49,25.90
2018,08,14,14,50,25.90
2018,08,14,14,51,25.90
2018,08,14,14,52,25.90
2018,08,14,14,53,26.00
2018,08,14,14,54,26.10
2018,08,14,14,55,26.10
2018,08,14,14,56,26.10
2018,08,14,14,57,26.10
2018,08,14,14,58,26.10
2018,08,14,14,59,26.10
2018,08,14,15,00,26.10
2018,08,14,15,01,26.10
2018,08,14,15,02,26.10
2018,08,14,15,03,26.10
2018,08,14,15,04,26.10
2018,08,14,15,05,26.10
2018,08,14,15,06,26.10
2018,08,14,15,07,26.10
2018,08,14,15,08,26.10
2018,08,14,15,09,26.10
2018,08,14,15,10,26.00
2018,08,14,15,11,26.00
2018,08,14,15,12,25.90
2018,08,14,15,13,26.00
2018,08,14,15,14,26.00
2018,08,14,15,15,26.10
2018,08,14,15,16,26.10
2018,08,14,15,17,26.10
2018,08,14,15,18,26.00
2018,08,14,15,19,26.00
2018,08,14,15,20,26.00
2018,08,14,15,21,25.90
2018,08,14,15,22,25.90
2018,08,14,15,23,25.90
2018,08,14,15,24,25.90
2018,08,14,15,25,25.90
2018,08,14,15,26,26.00
2018,08,14,15,27,25.90
2018,08,14,15,28,25.90
2018,08,14,15,29,25.90
2018,08,14,15,30,25.90
2018,08,14,15,31,25.90
2018,08,14,15,32,25.90
2018,08,14,15,33,25.90
2018,08,14,15,34,25.90
2018,08,14,15,35,26.00
2018,08,14,15,36,26.00
2018,08,14,15,37,25.90
2018,08,14,15,38,25.90
2018,08,14,15,39,26.00
2018,08,14,15,40,26.00
2018,08,14,15,41,26.00
2018,08,14,15,42,26.00
2018,08,14,15,43,26.00
2018,08,14,15,44,26.00
2018,08,14,15,45,26.00
2018,08,14,15,46,26.00
2018,08,14,15,47,26.00
2018,08,14,15,48,26.00
2018,08,14,15,49,26.00
2018,08,14,15,50,26.00
2018,08,14,15,51,26.00
2018,08,14,15,52,26.00
2018,08,14,15,53,26.00
2018,08,14,15,54,26.00
2018,08,14,15,55,26.00
2018,08,14,15,56,26.00
2018,08,14,15,57,25.90
2018,08,14,15,58,26.00
2018,08,14,15,59,26.00
2018,08,14,16,00,26.00
2018,08,14,16,01,26.00
2018,08,14,16,02,26.00
2018,08,14,16,03,26.00
2018,08,14,16,04,26.00
2018,08,14,16,05,26.00
2018,08,14,16,06,26.00
2018,08,14,16,07,26.10
2018,08,14,16,08,26.10
2018,08,14,16,09,26.00
2018,08,14,16,10,26.10
2018,08,14,16,11,26.10
2018,08,14,16,12,26.10
2018,08,14,16,13,26.10
2018,08,14,16,14,26.10
2018,08,14,16,15,26.10
2018,08,14,16,16,26.10
2018,08,14,16,17,26.10
2018,08,14,16,18,26.10
2018,08,14,16,19,26.00
2018,08,14,16,20,25.90
2018,08,14,16,21,25.90
2018,08,14,16,22,25.90
2018,08,14,16,23,25.90
2018,08,14,16,24,26.00
2018,08,14,16,25,26.00
2018,08,14,16,26,26.00
2018,08,14,16,27,26.00
2018,08,14,16,28,26.00
2018,08,14,16,29,26.00
2018,08,14,16,30,25.90
2018,08,14,16,31,25.90
2018,08,14,16,32,25.80
2018,08,14,16,33,25.80
2018,08,14,16,34,25.80
2018,08,14,16,35,25.80
2018,08,14,16,36,25.80
2018,08,14,16,37,25.80
2018,08,14,16,38,25.80
2018,08,14,16,39,25.80
2018,08,14,16,40,25.80
2018,08,14,16,41,25.80
2018,08,14,16,42,25.90
2018,08,14,16,43,25.90
2018,08,14,16,44,25.80
2018,08,14,16,45,25.90
2018,08,14,16,46,25.90
2018,08,14,16,47,25.90
2018,08,14,16,48,25.90
2018,08,14,16,49,25.90
2018,08,14,16,50,25.90
2018,08,14,16,51,25.80
2018,08,14,16,52,25.80
2018,08,14,16,53,25.80
2018,08,14,16,54,25.70
2018,08,14,16,55,25.70
2018,08,14,16,56,25.60
2018,08,14,16,57,25.60
2018,08,14,16,58,25.60
2018,08,14,16,59,25.60
2018,08,14,17,00,25.60
2018,08,14,17,01,25.50
2018,08,14,17,02,25.40
2018,08,14,17,03,25.40
2018,08,14,17,04,25.40
2018,08,14,17,05,25.40
2018,08,14,17,06,25.40
2018,08,14,17,07,25.40
2018,08,14,17,08,25.40
2018,08,14,17,09,25.40
2018,08,14,17,10,25.40
2018,08,14,17,11,25.30
2018,08,14,17,12,25.30
2018,08,14,17,13,25.30
2018,08,14,17,14,25.30
2018,08,14,17,15,25.20
2018,08,14,17,16,25.20
2018,08,14,17,17,25.20
2018,08,14,17,18,25.30
2018,08,14,17,19,25.20
2018,08,14,17,20,25.20
2018,08,14,17,21,25.20
2018,08,14,17,22,25.10
2018,08,14,17,23,25.00
2018,08,14,17,24,24.90
2018,08,14,17,25,24.80
2018,08,14,17,26,24.80
2018,08,14,17,27,24.70
2018,08,14,17,28,24.60
2018,08,14,17,29,24.60
2018,08,14,17,30,24.60
2018,08,14,17,31,24.50
2018,08,14,17,32,24.50
2018,08,14,17,33,24.40
2018,08,14,17,34,24.40
2018,08,14,17,35,24.40
2018,08,14,17,36,24.40
2018,08,14,17,37,24.40
2018,08,14,17,38,24.40
2018,08,14,17,39,24.40
2018,08,14,17,40,24.40
2018,08,14,17,41,24.30
2018,08,14,17,42,24.30
2018,08,14,17,43,24.30
2018,08,14,17,44,24.30
2018,08,14,17,45,24.30
2018,08,14,17,46,24.20
2018,08,14,17,47,24.20
2018,08,14,17,48,24.20
2018,08,14,17,49,24.20
2018,08,14,17,50,24.20
2018,08,14,17,51,24.20
2018,08,14,17,52,24.10
2018,08,14,17,53,24.10
2018,08,14,17,54,24.10
2018,08,14,17,55,24.00
2018,08,14,17,56,24.00
2018,08,14,17,57,23.90
2018,08,14,17,58,23.90
2018,08,14,17,59,23.90
2018,08,14,18,00,23.90
2018,08,14,18,01,23.90
2018,08,14,18,02,23.90
2018,08,14,18,03,23.90
2018,08,14,18,04,23.80
2018,08,14,18,05,23.80
2018,08,14,18,06,23.80
2018,08,14,18,07,23.80
2018,08,14,18,08,23.80
2018,08,14,18,09,23.80
2018,08,14,18,10,23.70
2018,08,14,18,11,23.70
2018,08,14,18,12,23.70
2018,08,14,18,13,23.70
2018,08,14,18,14,23.70
2018,08,14,18,15,23.70
2018,08,14,18,16,23.70
2018,08,14,18,17,23.70
2018,08,14,18,18,23.70
2018,08,14,18,19,23.80
2018,08,14,18,20,23.80
2018,08,14,18,21,23.80
2018,08,14,18,22,23.80
2018,08,14,18,23,23.90
2018,08,14,18,24,23.90
2018,08,14,18,25,23.90
2018,08,14,18,26,23.90
2018,08,14,18,27,24.00
2018,08,14,18,28,24.00
2018,08,14,18,29,24.10
2018,08,14,18,30,24.10
2018,08,14,18,31,24.20
2018,08,14,18,32,24.20
2018,08,14,18,33,24.20
2018,08,14,18,34,24.20
2018,08,14,18,35,24.30
2018,08,14,18,36,24.30
2018,08,14,18,37,24.30
2018,08,14,18,38,24.30
2018,08,14,18,39,24.30
2018,08,14,18,40,24.30
2018,08,14,18,41,24.30
2018,08,14,18,42,24.20
2018,08,14,18,43,24.10
2018,08,14,18,44,24.10
2018,08,14,18,45,24.00
2018,08,14,18,46,23.90
2018,08,14,18,47,23.80
2018,08,14,18,48,23.80
2018,08,14,18,49,23.70
2018,08,14,18,50,23.60
2018,08,14,18,51,23.50
2018,08,14,18,52,23.50
2018,08,14,18,53,23.40
2018,08,14,18,54,23.40
2018,08,14,18,55,23.30
2018,08,14,18,56,23.30
2018,08,14,18,57,23.30
2018,08,14,18,58,23.30
2018,08,14,18,59,23.30
2018,08,14,19,00,23.30
2018,08,14,19,01,23.20
2018,08,14,19,02,23.20
2018,08,14,19,03,23.20
2018,08,14,19,04,23.20
2018,08,14,19,05,23.20
2018,08,14,19,06,23.20
2018,08,14,19,07,23.20
2018,08,14,19,08,23.20
2018,08,14,19,09,23.10
2018,08,14,19,10,23.10
2018,08,14,19,11,23.10
2018,08,14,19,12,23.00
2018,08,14,19,13,23.00
2018,08,14,19,14,23.00
2018,08,14,19,15,23.00
2018,08,14,19,16,23.00
2018,08,14,19,17,23.00
2018,08,14,19,18,23.00
2018,08,14,19,19,23.00
2018,08,14,19,20,23.10
2018,08,14,19,21,23.00
2018,08,14,19,22,23.00
2018,08,14,19,23,23.00
2018,08,14,19,24,22.90
2018,08,14,19,25,22.90
2018,08,14,19,26,22.90
2018,08,14,19,27,22.80
2018,08,14,19,28,22.80
2018,08,14,19,29,22.80
2018,08,14,19,30,22.80
2018,08,14,19,31,22.80
2018,08,14,19,32,22.70
2018,08,14,19,33,22.60
2018,08,14,19,34,22.50
2018,08,14,19,35,22.40
2018,08,14,19,36,22.30
2018,08,14,19,37,22.20
2018,08,14,19,38,22.20
2018,08,14,19,39,22.10
2018,08,14,19,40,22.00
2018,08,14,19,41,22.00
2018,08,14,19,42,22.00
2018,08,14,19,43,21.90
2018,08,14,19,44,21.90
2018,08,14,19,45,21.90
2018,08,14,19,46,21.80
2018,08,14,19,47,21.80
2018,08,14,19,48,21.80
2018,08,14,19,49,21.80
2018,08,14,19,50,21.70
2018,08,14,19,51,21.70
2018,08,14,19,52,21.70
2018,08,14,19,53,21.70
2018,08,14,19,54,21.70
2018,08,14,19,55,21.70
2018,08,14,19,56,21.60
2018,08,14,19,57,21.60
2018,08,14,19,58,21.60
2018,08,14,19,59,21.60
2018,08,14,20,00,21.60
2018,08,14,20,01,21.50
2018,08,14,20,02,21.50
2018,08,14,20,03,21.50
2018,08,14,20,04,21.40
2018,08,14,20,05,21.40
2018,08,14,20,06,21.40
2018,08,14,20,07,21.30
2018,08,14,20,08,21.30
2018,08,14,20,09,21.30
2018,08,14,20,10,21.30
2018,08,14,20,11,21.30
2018,08,14,20,12,21.30
2018,08,14,20,13,21.30
2018,08,14,20,14,21.20
2018,08,14,20,15,21.20
2018,08,14,20,16,21.20
2018,08,14,20,17,21.20
2018,08,14,20,18,21.20
2018,08,14,20,19,21.20
2018,08,14,20,20,21.10
2018,08,14,20,21,21.10
2018,08,14,20,22,21.00
2018,08,14,20,23,21.00
2018,08,14,20,24,20.90
2018,08,14,20,25,20.90
2018,08,14,20,26,20.80
2018,08,14,20,27,20.80
2018,08,14,20,28,20.80
2018,08,14,20,29,20.70
2018,08,14,20,30,20.70
2018,08,14,20,31,20.60
2018,08,14,20,32,20.60
2018,08,14,20,33,20.60
2018,08,14,20,34,20.50
2018,08,14,20,35,20.50
2018,08,14,20,36,20.40
2018,08,14,20,37,20.40
2018,08,14,20,38,20.40
2018,08,14,20,39,20.30
2018,08,14,20,40,20.30
2018,08,14,20,41,20.30
2018,08,14,20,42,20.20
2018,08,14,20,43,20.20
2018,08,14,20,44,20.20
2018,08,14,20,45,20.20
2018,08,14,20,46,20.10
2018,08,14,20,47,20.10
2018,08,14,20,48,20.10
2018,08,14,20,49,20.00
2018,08,14,20,50,20.00
2018,08,14,20,51,19.90
2018,08,14,20,52,19.90
2018,08,14,20,53,19.80
2018,08,14,20,54,19.80
2018,08,14,20,55,19.80
2018,08,14,20,56,19.70
2018,08,14,20,57,19.70
2018,08,14,20,58,19.60
2018,08,14,20,59,19.60
2018,08,14,21,00,19.60
2018,08,14,21,01,19.50
2018,08,14,21,02,19.50
2018,08,14,21,03,19.40
2018,08,14,21,04,19.40
2018,08,14,21,05,19.30
2018,08,14,21,06,19.30
2018,08,14,21,07,19.20
2018,08,14,21,08,19.20
2018,08,14,21,09,19.10
2018,08,14,21,10,19.10
2018,08,14,21,11,19.00
2018,08,14,21,12,19.00
2018,08,14,21,13,18.90
2018,08,14,21,14,18.90
2018,08,14,21,15,18.80
2018,08,14,21,16,18.80
2018,08,14,21,17,18.70
2018,08,14,21,18,18.70
2018,08,14,21,19,18.70
2018,08,14,21,20,18.60
2018,08,14,21,21,18.60
2018,08,14,21,22,18.60
2018,08,14,21,23,18.50
2018,08,14,21,24,18.50
2018,08,14,21,25,18.50
2018,08,14,21,26,18.50
2018,08,14,21,27,18.40
2018,08,14,21,28,18.40
2018,08,14,21,29,18.40
2018,08,14,21,30,18.40
2018,08,14,21,31,18.30
2018,08,14,21,32,18.30
2018,08,14,21,33,18.30
2018,08,14,21,34,18.30
2018,08,14,21,35,18.30
2018,08,14,21,36,18.30
2018,08,14,21,37,18.20
2018,08,14,21,38,18.20
2018,08,14,21,39,18.20
2018,08,14,21,40,18.20
2018,08,14,21,41,18.20
2018,08,14,21,42,18.10
2018,08,14,21,43,18.10
2018,08,14,21,44,18.10
2018,08,14,21,45,18.10
2018,08,14,21,46,18.10
2018,08,14,21,47,18.10
2018,08,14,21,48,18.10
2018,08,14,21,49,18.00
2018,08,14,21,50,18.00
2018,08,14,21,51,18.00
2018,08,14,21,52,18.00
2018,08,14,21,53,18.00
2018,08,14,21,54,18.00
2018,08,14,21,55,17.90
2018,08,14,21,56,17.90
2018,08,14,21,57,17.90
2018,08,14,21,58,17.90
2018,08,14,21,59,17.90
2018,08,14,22,00,17.90
2018,08,14,22,01,17.90
2018,08,14,22,02,17.90
2018,08,14,22,03,17.90
2018,08,14,22,04,17.80
2018,08,14,22,05,17.80
2018,08,14,22,06,17.80
2018,08,14,22,07,17.80
2018,08,14,22,08,17.80
2018,08,14,22,09,17.80
2018,08,14,22,10,17.70
2018,08,14,22,11,17.70
2018,08,14,22,12,17.70
2018,08,14,22,13,17.70
2018,08,14,22,14,17.70
2018,08,14,22,15,17.60
2018,08,14,22,16,17.60
2018,08,14,22,17,17.60
2018,08,14,22,18,17.60
2018,08,14,22,19,17.60
2018,08,14,22,20,17.50
2018,08,14,22,21,17.50
2018,08,14,22,22,17.50
2018,08,14,22,23,17.40
2018,08,14,22,24,17.40
2018,08,14,22,25,17.40
2018,08,14,22,26,17.30
2018,08,14,22,27,17.30
2018,08,14,22,28,17.30
2018,08,14,22,29,17.20
2018,08,14,22,30,17.20
2018,08,14,22,31,17.20
2018,08,14,22,32,17.20
2018,08,14,22,33,17.20
2018,08,14,22,34,17.20
2018,08,14,22,35,17.20
2018,08,14,22,36,17.20
2018,08,14,22,37,17.10
2018,08,14,22,38,17.10
2018,08,14,22,39,17.10
2018,08,14,22,40,17.10
2018,08,14,22,41,17.10
2018,08,14,22,42,17.10
2018,08,14,22,43,17.10
2018,08,14,22,44,17.10
2018,08,14,22,45,17.10
2018,08,14,22,46,17.10
2018,08,14,22,47,17.00
2018,08,14,22,48,17.00
2018,08,14,22,49,17.00
2018,08,14,22,50,17.00
2018,08,14,22,51,16.90
2018,08,14,22,52,16.90
2018,08,14,22,53,16.90
2018,08,14,22,54,16.90
2018,08,14,22,55,16.90
2018,08,14,22,56,16.90
2018,08,14,22,57,16.90
2018,08,14,22,58,16.90
2018,08,14,22,59,16.80
2018,08,14,23,00,16.80
2018,08,14,23,01,16.80
2018,08,14,23,02,16.80
2018,08,14,23,03,16.80
2018,08,14,23,04,16.80
2018,08,14,23,05,16.80
2018,08,14,23,06,16.80
2018,08,14,23,07,16.70
2018,08,14,23,08,16.70
2018,08,14,23,09,16.70
2018,08,14,23,10,16.70
2018,08,14,23,11,16.70
2018,08,14,23,12,16.70
2018,08,14,23,13,16.60
2018,08,14,23,14,16.60
2018,08,14,23,15,16.70
2018,08,14,23,16,16.70
2018,08,14,23,17,16.60
2018,08,14,23,18,16.60
2018,08,14,23,19,16.60
2018,08,14,23,20,16.60
2018,08,14,23,21,16.60
2018,08,14,23,22,16.60
2018,08,14,23,23,16.60
2018,08,14,23,24,16.60
2018,08,14,23,25,16.60
2018,08,14,23,26,16.60
2018,08,14,23,27,16.60
2018,08,14,23,28,16.60
2018,08,14,23,29,16.60
2018,08,14,23,30,16.50
2018,08,14,23,31,16.50
2018,08,14,23,32,16.50
2018,08,14,23,33,16.50
2018,08,14,23,34,16.50
2018,08,14,23,35,16.50
2018,08,14,23,36,16.50
2018,08,14,23,37,16.40
2018,08,14,23,38,16.40
2018,08,14,23,39,16.40
2018,08,14,23,40,16.40
2018,08,14,23,41,16.40
2018,08,14,23,42,16.40
2018,08,14,23,43,16.40
2018,08,14,23,44,16.40
2018,08,14,23,45,16.30
2018,08,14,23,46,16.30
2018,08,14,23,47,16.30
2018,08,14,23,48,16.30
2018,08,14,23,49,16.30
2018,08,14,23,50,16.30
2018,08,14,23,51,16.30
2018,08,14,23,52,16.30
2018,08,14,23,53,16.30
2018,08,14,23,54,16.30
2018,08,14,23,55,16.30
2018,08,14,23,56,16.30
2018,08,14,23,57,16.20
2018,08,14,23,58,16.20
2018,08,14,23,59,16.20
